Regional Weather Roundup
Issued by NWS

Home | Current Version | Previous Version | Graphics & Text | Print | Product List | Glossary On
Versions: 1 2 3 4 5 6 7 8 9 10 11 12 13 14 15 16 17 18 19 20 21 22 23 24 25 26 27 28 29 30 31 32 33 34 35 36 37 38 39 40 41 42 43 44 45 46 47 48 49 50
412
ASUS43 KLSX 221707
RWRMO

WEATHER SUMMARY FOR MISSOURI
NATIONAL WEATHER SERVICE SPRINGFIELD MO
1200 PM CDT MON MAY 22 2017

NOTE: "FAIR" INDICATES FEW OR NO CLOUDS BELOW 12,000 FEET WITH NO
       SIGNIFICANT WEATHER AND/OR OBSTRUCTIONS TO VISIBILITY.
       CURRENT SKY AND/OR WEATHER CONDITIONS ARE NOT AVAILABLE FOR
       CHILLICOTHE AND FARMINGTON.

MOZ001>031-035>038-043-044-053-054-221800-
...NORTHERN AND WESTERN MISSOURI...

CITY           SKY/WX    TMP DP  RH WIND       PRES   REMARKS
KANSAS CTY INT CLOUDY    61  57  87 SW6       30.04F
KANSAS C DTWN  CLOUDY    64  57  78 SW7       30.04F
LEE`S SUMMIT   CLOUDY    64  58  80 SW6       30.06F
ST JOSEPH      RAIN      58  58 100 SW8       30.03F FOG
CHILLICOTHE      N/A     66  56  70 VRB7      30.03R
KIRKSVILLE     CLOUDY    68  55  63 MISG      30.01F

$$
MOZ066>068-077>081-088>096-101>105-221800-
...SOUTHWEST MISSOURI...

CITY           SKY/WX    TMP DP  RH WIND       PRES   REMARKS
SPRINGFIELD    SUNNY     70  50  49 S16       30.08F
JOPLIN         MOSUNNY   73  53  49 S8        30.08F
BRANSON        PTSUNNY   70  46  43 SE12G17   30.12F

$$
MOZ032>034-039>042-045>050-055>058-069>072-221800-
...CENTRAL MISSOURI...

CITY           SKY/WX    TMP DP  RH WIND       PRES   REMARKS
COLUMBIA       SUNNY     73  51  46 SW15      30.07F
JEFFERSON CITY CLOUDY    73  50  44 S9        30.06F
ROLLA          MOSUNNY   69  51  52 S10       30.08F
SEDALIA        CLOUDY    68  56  65 SW13      30.08F
WHITEMAN AFB   PTSUNNY   66  56  69 W12       30.06S
WARRENSBURG    CLOUDY    64  52  63 SW12      30.07S
OSAGE BEACH    CLOUDY    72  49  44 S8        30.09F

$$
MOZ051-052-059>065-221800-
...EAST CENTRAL MISSOURI...

CITY           SKY/WX    TMP DP  RH WIND       PRES   REMARKS
ST LOUIS INTL  MOSUNNY   74  43  32 S7        30.09F
SPIRIT OF STL  PTSUNNY   72  47  40 VRB7      30.08F
ST CHARLES     SUNNY     72  46  39 S10       30.07F

$$
MOZ072>076-082>087-097>100-106>115-221800-
...SOUTH CENTRAL AND SOUTHEAST MISSOURI...

CITY           SKY/WX    TMP DP  RH WIND       PRES   REMARKS
CAPE GIRARDEAU CLOUDY    69  48  47 CALM      30.12F
FARMINGTON     CLOUDY    69  51  52 SE8       30.12F
POPLAR BLUFF   CLOUDY    71  50  47 E5        30.12F
WEST PLAINS    SUNNY     68  48  48 S7        30.13F

$$




USA.gov is the U.S. government's official web portal to all federal, state and local government web resources and services.